SILO ALERT LOG
| Silo ID | Alert Type | Alert Message | Silo Type | Points | Depth (mm) | Strength | Temperature (°C) | Humidity (%) | Height (mm) | Volume (㎥) | Weight (t) | Flag | Time |
|---|---|---|---|---|---|---|---|---|---|---|---|---|---|
| WJWJR05 | Humidity | 습도센서 측정값이 80% 초과 | 평 | 57 | 7290 | 2430 | 25.8 | 87.2 | 429 | 48.632 | 30.745 | 0 | 2026-07-31 09:25:49.000 |
| WJWJR01 | Humidity | 습도센서 측정값이 80% 초과 | 평 | 77 | 7670 | 1085 | 24.5 | 88.5 | -30 | -3.393 | 0 | 0 | 2026-07-31 05:26:10.000 |
| WJWJR05 | Humidity | 습도센서 측정값이 80% 초과 | 평 | 59 | 7720 | 2435 | 25 | 84.1 | 0 | 0 | 0 | 0 | 2026-07-31 05:25:45.000 |
| WJWJR01 | Humidity | 습도센서 측정값이 80% 초과 | 평 | 76 | 7670 | 1082 | 25.8 | 85.1 | -30 | -3.393 | 0 | 0 | 2026-07-31 01:26:00.000 |
| WJWJR05 | Humidity | 습도센서 측정값이 80% 초과 | 평 | 56 | 7920 | 2506 | 26.5 | 80.2 | -200 | -22.619 | 0 | 0 | 2026-07-31 01:25:47.000 |
| WJWJR01 | Humidity | 습도센서 측정값이 80% 초과 | 평 | 74 | 7660 | 1084 | 27.2 | 81.3 | -20 | -2.262 | 0 | 0 | 2026-07-30 09:26:01.000 |
| WJWJR05 | Humidity | 습도센서 측정값이 80% 초과 | 평 | 58 | 8200 | 2448 | 25.8 | 82.4 | -480 | -54.287 | 0 | 0 | 2026-07-30 09:25:44.000 |
| WJWJR01 | Humidity | 습도센서 측정값이 80% 초과 | 평 | 77 | 7680 | 1103 | 24.6 | 86.9 | -40 | -4.524 | 0 | 0 | 2026-07-30 05:26:01.000 |
| WJWJR05 | Humidity | 습도센서 측정값이 80% 초과 | 평 | 56 | 7800 | 2462 | 25.3 | 81.3 | -80 | -9.048 | 0 | 0 | 2026-07-30 05:25:49.000 |
| WJWJR01 | Humidity | 습도센서 측정값이 80% 초과 | 평 | 76 | 7690 | 1046 | 26.3 | 82.4 | -50 | -5.655 | 0 | 0 | 2026-07-30 01:26:03.000 |
| WJWJR01 | Humidity | 습도센서 측정값이 80% 초과 | 평 | 76 | 7660 | 1061 | 27.5 | 85.4 | -20 | -2.262 | 0 | 0 | 2026-07-29 09:26:00.000 |
| WJWJR01 | Humidity | 습도센서 측정값이 80% 초과 | 평 | 77 | 7690 | 1083 | 26 | 87.5 | -50 | -5.655 | 0 | 0 | 2026-07-29 05:25:57.000 |
| WJWJR01 | Humidity | 습도센서 측정값이 80% 초과 | 평 | 76 | 7680 | 1039 | 27.2 | 84.3 | -40 | -4.524 | 0 | 0 | 2026-07-29 01:26:02.000 |
| WJWJR01 | Humidity | 습도센서 측정값이 80% 초과 | 평 | 77 | 7680 | 1057 | 27.9 | 88.2 | -40 | -4.524 | 0 | 0 | 2026-07-28 09:26:01.000 |
| WJWJR05 | Humidity | 습도센서 측정값이 80% 초과 | 평 | 57 | 7460 | 2647 | 28.6 | 83 | 259 | 29.405 | 18.59 | 0 | 2026-07-28 09:25:48.000 |
| WJWJR01 | Humidity | 습도센서 측정값이 80% 초과 | 평 | 76 | 7680 | 1057 | 26.1 | 87.3 | -40 | -4.524 | 0 | 0 | 2026-07-28 05:26:02.000 |
| WJWJR01 | Humidity | 습도센서 측정값이 80% 초과 | 평 | 82 | 7700 | 1082 | 27 | 83.8 | -60 | -6.786 | 0 | 0 | 2026-07-28 01:26:00.000 |
| WJWJR01 | Humidity | 습도센서 측정값이 80% 초과 | 평 | 82 | 7690 | 1045 | 26.9 | 90 | -50 | -5.655 | 0 | 0 | 2026-07-27 09:25:56.000 |
| WJWJR05 | Humidity | 습도센서 측정값이 80% 초과 | 평 | 62 | 7580 | 2627 | 27.7 | 82.2 | 139 | 15.834 | 10.01 | 0 | 2026-07-27 09:25:50.000 |
| WJWJR01 | Humidity | 습도센서 측정값이 80% 초과 | 평 | 77 | 7690 | 1055 | 24.7 | 87.8 | -50 | -5.655 | 0 | 0 | 2026-07-27 05:26:00.000 |
[첫 페이지] [10] [11] [12] [13] 14 [15] [16] [17] [18] [마지막 페이지]